FW5359 Weather Reports


Display with metric or nautical units.
time (UTC)temp
F
wind
direction
speed
MPH
gust
MPH
rain 1hr
in
rain 24hr
in
rain mn
in
humidity
%
barometer
mb
20260904172017 88 205 3.0 9.0 0.00 0.00 0.00 67 1016.3
20260904171517 88 115 2.0 9.0 0.00 0.00 0.00 67 1016.3
20260904171017 88 136 2.0 9.0 0.00 0.00 0.00 69 1016.4
20260904170017 87 167 2.0 7.0 0.00 0.00 0.00 70 1016.4
20260904165518 87 153 3.0 7.0 0.00 0.00 0.00 70 1016.5
20260904165018 86 72 3.0 9.0 0.00 0.00 0.00 71 1016.6
20260904164517 86 169 3.0 9.0 0.00 0.00 0.00 72 1016.6
20260904164018 86 128 3.0 9.0 0.00 0.00 0.00 71 1016.6
20260904163514 86 144 2.0 9.0 0.00 0.00 0.00 71 1016.6
20260904163012 87 124 2.0 5.0 0.00 0.00 0.00 70 1016.5
20260904162513 87 101 1.0 6.0 0.00 0.00 0.00 70 1016.6
20260904162014 87 146 2.0 8.0 0.00 0.00 0.00 72 1016.5
20260904161512 86 157 2.0 8.0 0.00 0.00 0.00 73 1016.5
20260904161243 85 153 2.0 9.0 0.00 0.00 0.00 74 1016.5
20260904160509 85 157 3.0 9.0 0.00 0.00 0.00 74 1016.5
20260904160009 85 94 3.0 11.0 0.00 0.00 0.00 75 1016.6
20260904155509 85 115 3.0 11.0 0.00 0.00 0.00 74 1016.6
20260904155242 85 171 3.0 7.0 0.00 0.00 0.00 74 1016.6
20260904154509 85 171 3.0 8.0 0.00 0.00 0.00 74 1016.6
20260904154007 85 119 3.0 10.0 0.00 0.00 0.00 76 1016.5
20260904153507 84 115 3.0 10.0 0.00 0.00 0.00 77 1016.4
20260904153007 84 71 2.0 7.0 0.00 0.00 0.00 78 1016.4
20260904152509 83 123 2.0 7.0 0.00 0.00 0.00 79 1016.3
20260904152002 82 126 2.0 10.0 0.00 0.00 0.00 80 1016.2
20260904151456 82 155 2.0 10.0 0.00 0.00 0.00 79 1016.2
20260904150950 83 149 1.0 8.0 0.00 0.00 0.00 80 1016.2
20260904150444 83 225 2.0 7.0 0.00 0.00 0.00 79 1016.2
20260904145939 83 91 1.0 7.0 0.00 0.00 0.00 79 1016.2
20260904145433 82 116 2.0 7.0 0.00 0.00 0.00 81 1016.2
20260904144927 82 138 2.0 10.0 0.00 0.00 0.00 81 1016.2
20260904144422 82 146 2.0 10.0 0.00 0.00 0.00 83 1016.3
20260904143915 81 132 2.0 7.0 0.00 0.00 0.00 84 1016.2
20260904143408 80 176 3.0 8.0 0.00 0.00 0.00 84 1016.2
20260904142902 80 169 3.0 8.0 0.00 0.00 0.00 84 1016.2
20260904142356 80 217 3.0 8.0 0.00 0.00 0.00 84 1016.2
20260904141850 80 165 2.0 7.0 0.00 0.00 0.00 85 1016.2
20260904141344 80 153 2.0 9.0 0.00 0.00 0.00 85 1016.0
20260904140838 80 205 2.0 9.0 0.00 0.00 0.00 86 1016.1
20260904140332 80 166 2.0 6.0 0.00 0.00 0.00 86 1016.1
20260904140059 79 182 1.0 6.0 0.00 0.00 0.00 86 1016.1
20260904135333 79 175 2.0 6.0 0.00 0.00 0.00 86 1016.2
20260904134308 79 181 1.0 7.0 0.00 0.00 0.00 87 1016.0
20260904134034 79 181 2.0 8.0 0.00 0.00 0.00 87 1016.0
20260904133256 79 177 2.0 8.0 0.00 0.00 0.00 87 1016.0
20260904132750 78 169 2.0 6.0 0.00 0.00 0.00 87 1015.9
20260904132244 78 175 3.0 8.0 0.00 0.00 0.00 87 1015.8
20260904131738 78 160 3.0 9.0 0.00 0.00 0.00 87 1015.8
20260904131232 78 195 1.0 6.0 0.00 0.00 0.00 87 1015.6
20260904130726 78 153 2.0 6.0 0.00 0.00 0.00 88 1015.5
20260904130452 78 155 2.0 6.0 0.00 0.00 0.00 87 1015.5
20260904125714 78 160 1.0 5.0 0.00 0.00 0.00 87 1015.4
20260904125439 78 161 1.0 7.0 0.00 0.00 0.00 88 1015.5
20260904124933 78 150 1.0 6.0 0.00 0.00 0.00 87 1015.5
20260904124157 78 147 1.0 4.0 0.00 0.00 0.00 87 1015.4
20260904123651 78 145 1.0 4.0 0.00 0.00 0.00 87 1015.3
20260904123145 78 134 1.0 5.0 0.00 0.00 0.00 87 1015.3
20260904122639 78 129 1.0 4.0 0.00 0.00 0.00 87 1015.2
20260904122136 78 179 1.0 6.0 0.00 0.00 0.00 87 1015.2
20260904121906 78 202 1.0 7.0 0.00 0.00 0.00 87 1015.2
20260904121136 78 153 1.0 7.0 0.00 0.00 0.00 87 1015.0
20260904120634 78 233 1.0 5.0 0.00 0.00 0.00 87 1015.0
20260904120132 78 171 2.0 5.0 0.00 0.00 0.00 87 1014.9
20260904115632 78 194 1.0 5.0 0.00 0.00 0.00 87 1015.0
20260904115132 78 169 1.0 5.0 0.00 0.00 0.00 87 1014.9
20260904114630 78 169 2.0 7.0 0.00 0.00 0.00 87 1014.9
20260904114130 78 142 2.0 8.0 0.00 0.00 0.00 87 1014.8
20260904113630 78 157 1.0 8.0 0.00 0.00 0.00 87 1014.8
20260904113129 78 178 2.0 5.0 0.00 0.00 0.00 87 1014.7
20260904112632 78 167 1.0 4.0 0.00 0.00 0.00 87 1014.7
20260904112131 78 167 1.0 6.0 0.00 0.00 0.00 86 1014.5
20260904111628 78 165 1.0 6.0 0.00 0.00 0.00 86 1014.5
20260904111128 78 157 1.0 6.0 0.00 0.00 0.00 86 1014.3
20260904110628 78 154 1.0 6.0 0.00 0.00 0.00 86 1014.4
20260904110128 78 197 1.0 6.0 0.00 0.00 0.00 85 1014.3
20260904105624 79 211 1.0 6.0 0.00 0.00 0.00 85 1014.4
20260904105123 79 194 1.0 5.0 0.00 0.00 0.00 85 1014.4
20260904104623 79 178 1.0 6.0 0.00 0.00 0.00 85 1014.4
20260904104123 79 166 1.0 6.0 0.00 0.00 0.00 85 1014.5
20260904103624 79 148 1.0 5.0 0.00 0.00 0.00 85 1014.4
20260904103124 79 196 2.0 5.0 0.00 0.00 0.00 85 1014.4
20260904102624 79 190 2.0 6.0 0.00 0.00 0.00 84 1014.4
20260904101624 79 191 2.0 6.0 0.00 0.00 0.00 84 1014.4
20260904101123 79 225 2.0 9.0 0.00 0.00 0.00 84 1014.4
20260904100623 79 267 2.0 10.0 0.00 0.00 0.00 84 1014.4
20260904100123 79 182 1.0 10.0 0.00 0.00 0.00 83 1014.3
20260904095854 79 222 1.0 5.0 0.00 0.00 0.00 84 1014.3
20260904095123 79 208 2.0 6.0 0.00 0.00 0.00 84 1014.3
20260904094623 79 355 1.0 6.0 0.00 0.00 0.00 84 1014.4
20260904094353 79 169 1.0 6.0 0.00 0.00 0.00 84 1014.3
20260904093622 79 227 2.0 10.0 0.00 0.00 0.00 84 1014.3
20260904093122 79 208 3.0 10.0 0.00 0.00 0.00 84 1014.3
20260904092621 79 205 3.0 7.0 0.00 0.00 0.00 84 1014.3
20260904092115 79 173 2.0 7.0 0.00 0.00 0.00 83 1014.3
20260904091609 79 176 3.0 7.0 0.00 0.00 0.00 83 1014.3
20260904091103 79 239 2.0 9.0 0.00 0.00 0.00 83 1014.3
20260904090556 79 194 2.0 9.0 0.00 0.00 0.00 83 1014.4
20260904090050 79 180 2.0 6.0 0.00 0.00 0.00 84 1014.3
20260904085545 79 239 2.0 6.0 0.00 0.00 0.00 83 1014.4
20260904085038 79 201 2.0 7.0 0.00 0.00 0.00 84 1014.3
20260904084533 79 165 2.0 7.0 0.00 0.00 0.00 83 1014.3
20260904084257 79 187 2.0 7.0 0.00 0.00 0.00 83 1014.5
20260904083014 79 123 3.0 8.0 0.00 0.00 0.00 83 1014.4
20260904082738 79 225 2.0 8.0 0.00 0.00 0.00 83 1014.4
20260904082231 79 269 1.0 7.0 0.00 0.00 0.00 83 1014.4
20260904081455 79 202 1.0 5.0 0.00 0.00 0.00 83 1014.5
20260904081219 79 169 1.0 8.0 0.00 0.00 0.00 83 1014.5
20260904080443 79 180 1.0 8.0 0.00 0.00 0.00 83 1014.5
20260904075937 79 192 1.0 7.0 0.00 0.00 0.00 83 1014.6
20260904075431 79 155 2.0 7.0 0.00 0.00 0.00 83 1014.5
20260904074925 79 150 2.0 7.0 0.00 0.00 0.00 83 1014.6
20260904074650 80 218 1.0 6.0 0.00 0.00 0.00 82 1014.7
20260904073914 80 157 1.0 6.0 0.00 0.00 0.00 82 1014.7
20260904073407 80 149 1.0 5.0 0.00 0.00 0.00 82 1014.7
20260904072901 80 147 1.0 7.0 0.00 0.00 0.00 82 1014.9
20260904072626 80 165 2.0 7.0 0.00 0.00 0.00 82 1014.9
20260904071848 80 166 1.0 6.0 0.00 0.00 0.00 82 1015.0
20260904071343 80 165 2.0 8.0 0.00 0.00 0.00 82 1015.0
20260904070836 80 158 2.0 8.0 0.00 0.00 0.00 82 1015.2
20260904070331 80 148 1.0 7.0 0.00 0.00 0.00 82 1015.2
20260904065825 80 161 1.0 6.0 0.00 0.00 0.00 81 1015.2
20260904065319 80 159 2.0 8.0 0.00 0.00 0.00 81 1015.0
20260904065045 80 146 2.0 8.0 0.00 0.00 0.00 81 1014.9
20260904064307 80 184 2.0 8.0 0.00 0.00 0.00 81 1015.0
20260904064032 80 189 2.0 8.0 0.00 0.00 0.00 81 1015.2
20260904063255 80 240 2.0 8.0 0.00 0.00 0.00 81 1015.0
20260904062749 80 265 1.0 8.0 0.00 0.00 0.00 81 1015.0
20260904062242 80 163 2.0 8.0 0.00 0.00 0.00 80 1015.2
20260904061737 80 144 3.0 8.0 0.00 0.00 0.00 80 1015.2
20260904061233 80 147 3.0 12.0 0.00 0.00 0.00 80 1015.2
20260904060726 80 157 4.0 12.0 0.00 0.00 0.00 80 1015.0
20260904060452 80 122 3.0 12.0 0.00 0.00 0.00 80 1015.0
20260904055715 80 161 2.0 11.0 0.00 0.00 0.00 80 1015.3
20260904055437 81 184 3.0 10.0 0.00 0.00 0.00 79 1015.2
20260904054701 81 254 4.0 11.0 0.00 0.00 0.00 79 1015.0
20260904054155 81 190 4.0 11.0 0.00 0.00 0.00 79 1015.0
20260904053649 81 149 3.0 10.0 0.00 0.00 0.00 78 1015.0
20260904053143 81 150 2.0 8.0 0.00 0.00 0.00 78 1015.2
20260904052637 81 186 3.0 9.0 0.00 0.00 0.00 78 1015.3
20260904052131 81 178 4.0 9.0 0.00 0.00 0.00 78 1015.2
20260904051855 81 174 4.0 15.0 0.00 0.00 0.00 77 1015.2
20260904051119 81 315 4.0 15.0 0.00 0.00 0.00 77 1015.0
20260904050613 81 175 3.0 11.0 0.00 0.00 0.00 77 1015.2
20260904050107 82 173 4.0 11.0 0.00 0.00 0.00 77 1015.2
20260904045600 82 147 4.0 10.0 0.00 0.00 0.00 77 1015.2
20260904045054 82 169 5.0 12.0 0.00 0.00 0.00 76 1014.9
20260904044548 82 157 4.0 12.0 0.00 0.00 0.00 75 1015.0
20260904044041 82 107 3.0 9.0 0.00 0.00 0.00 75 1014.9
20260904043535 82 157 3.0 11.0 0.00 0.00 0.00 74 1014.8
20260904043030 83 165 4.0 11.0 0.00 0.00 0.00 73 1014.6
20260904042524 83 159 4.0 14.0 0.00 0.00 0.00 71 1014.5
20260904042018 83 127 3.0 11.0 0.00 0.00 0.00 70 1014.4
20260904041511 84 140 3.0 11.0 0.00 0.00 0.00 69 1014.5
20260904041004 84 86 4.0 9.0 0.00 0.00 0.00 68 1014.4
20260904040457 84 123 4.0 9.0 0.00 0.00 0.00 67 1014.5
20260904035952 84 224 3.0 13.0 0.00 0.00 0.00 65 1014.6
20260904035446 85 178 3.0 13.0 0.00 0.00 0.00 65 1014.7
20260904034940 85 125 4.0 11.0 0.00 0.00 0.00 64 1014.6
20260904034434 85 146 4.0 11.0 0.00 0.00 0.00 64 1014.7
20260904034159 85 155 4.0 11.0 0.00 0.00 0.00 64 1014.5
20260904033422 85 163 4.0 11.0 0.00 0.00 0.00 64 1014.6
20260904032915 85 194 5.0 13.0 0.00 0.00 0.00 64 1014.5
20260904032409 85 156 5.0 13.0 0.00 0.00 0.00 63 1014.5
20260904031358 86 121 3.0 9.0 0.00 0.00 0.00 63 1014.3
20260904030852 86 126 2.0 8.0 0.00 0.00 0.00 63 1014.1
20260904030347 86 142 2.0 6.0 0.00 0.00 0.00 63 1014.2
20260904030110 86 161 2.0 8.0 0.00 0.00 0.00 63 1014.0
20260904025604 86 138 2.0 8.0 0.00 0.00 0.00 63 1013.8
20260904025058 86 126 2.0 8.0 0.00 0.00 0.00 62 1013.8
20260904024322 86 112 3.0 8.0 0.00 0.00 0.00 62 1013.7
20260904023816 86 126 3.0 8.0 0.00 0.00 0.00 62 1013.7
20260904023310 86 126 3.0 8.0 0.00 0.00 0.00 62 1013.7
20260904022805 86 138 3.0 9.0 0.00 0.00 0.00 61 1013.5
20260904022258 86 119 4.0 11.0 0.00 0.00 0.00 61 1013.3
20260904021751 86 126 4.0 11.0 0.00 0.00 0.00 61 1013.2
20260904021246 86 123 3.0 10.0 0.00 0.00 0.00 61 1013.2
20260904021010 87 110 3.0 9.0 0.00 0.00 0.00 61 1013.1
20260904020505 87 81 3.0 10.0 0.00 0.00 0.00 61 1013.0
20260904015727 87 137 3.0 10.0 0.00 0.00 0.00 61 1013.0
20260904015222 87 117 5.0 14.0 0.00 0.00 0.00 61 1012.8
20260904014722 87 139 6.0 14.0 0.00 0.00 0.00 60 1012.8
20260904014452 88 118 5.0 14.0 0.00 0.00 0.00 60 1012.8
20260904013724 88 102 4.0 13.0 0.00 0.00 0.00 60 1012.8
20260904013222 88 138 4.0 13.0 0.00 0.00 0.00 60 1012.8
20260904012722 89 102 5.0 12.0 0.00 0.00 0.00 59 1012.6
20260904012222 89 101 6.0 16.0 0.00 0.00 0.00 58 1012.6
20260904011722 90 149 6.0 16.0 0.00 0.00 0.00 58 1012.6
20260904011452 90 109 5.0 12.0 0.00 0.00 0.00 57 1012.6
20260904010220 91 94 5.0 15.0 0.00 0.00 0.00 55 1012.0
20260904005950 92 114 5.0 15.0 0.00 0.00 0.00 54 1011.9
20260904005220 92 73 6.0 13.0 0.00 0.00 0.00 53 1011.8
20260904004720 92 107 5.0 13.0 0.00 0.00 0.00 52 1011.8
20260904004220 93 134 4.0 13.0 0.00 0.00 0.00 51 1011.7
20260904003720 93 136 4.0 13.0 0.00 0.00 0.00 51 1011.7
20260904003220 93 111 4.0 10.0 0.00 0.00 0.00 50 1011.6
20260904002719 94 105 4.0 11.0 0.00 0.00 0.00 50 1011.5
20260904002217 94 69 4.0 16.0 0.00 0.00 0.00 49 1011.5
20260904001718 95 85 4.0 16.0 0.00 0.00 0.00 48 1011.4
20260904001218 95 94 3.0 10.0 0.00 0.00 0.00 47 1011.4
20260904000717 96 114 3.0 8.0 0.00 0.00 0.00 47 1011.3
20260904000218 96 126 3.0 10.0 0.00 0.00 0.00 46 1011.2
20260903235718 96 107 3.0 10.0 0.00 0.00 0.00 45 1011.2
20260903235218 97 136 3.0 8.0 0.00 0.00 0.00 43 1011.3
20260903234718 97 88 2.0 8.0 0.00 0.00 0.00 43 1011.3
20260903234217 97 62 2.0 8.0 0.00 0.00 0.00 42 1011.2
20260903233718 97 123 3.0 11.0 0.00 0.00 0.00 43 1011.3
20260903233218 97 88 3.0 11.0 0.00 0.00 0.00 43 1011.3
20260903232718 98 64 3.0 7.0 0.00 0.00 0.00 43 1011.2
20260903232218 98 116 2.0 7.0 0.00 0.00 0.00 43 1011.2
20260903231717 98 186 3.0 8.0 0.00 0.00 0.00 43 1011.1
20260903231217 99 111 3.0 8.0 0.00 0.00 0.00 43 1011.2
20260903230718 98 248 2.0 8.0 0.00 0.00 0.00 43 1011.1
20260903230449 98 130 2.0 8.0 0.00 0.00 0.00 42 1011.1
20260903225715 98 133 3.0 10.0 0.00 0.00 0.00 43 1011.1
20260903225209 98 151 3.0 10.0 0.00 0.00 0.00 43 1011.0
20260903224939 98 164 3.0 10.0 0.00 0.00 0.00 43 1011.1
20260903224431 99 111 3.0 10.0 0.00 0.00 0.00 43 1011.0
20260903223700 99 191 3.0 10.0 0.00 0.00 0.00 43 1011.1
20260903223200 99 122 3.0 9.0 0.00 0.00 0.00 43 1011.1
20260903222934 99 174 3.0 10.0 0.00 0.00 0.00 43 1011.0
20260903222200 99 130 2.0 10.0 0.00 0.00 0.00 43 1011.1
20260903221700 99 143 3.0 7.0 0.00 0.00 0.00 44 1011.1
20260903221200 98 164 3.0 6.0 0.00 0.00 0.00 44 1011.2
20260903220700 98 119 2.0 6.0 0.00 0.00 0.00 45 1011.2
20260903215658 98 176 3.0 8.0 0.00 0.00 0.00 43 1011.4
20260903215158 98 134 3.0 8.0 0.00 0.00 0.00 43 1011.4
20260903214657 98 98 3.0 8.0 0.00 0.00 0.00 43 1011.5
20260903214157 99 131 3.0 8.0 0.00 0.00 0.00 43 1011.5
20260903213658 99 126 3.0 7.0 0.00 0.00 0.00 43 1011.5
20260903213156 99 96 2.0 9.0 0.00 0.00 0.00 43 1011.5
20260903212656 99 60 2.0 10.0 0.00 0.00 0.00 43 1011.6
20260903212154 99 116 2.0 10.0 0.00 0.00 0.00 43 1011.8
20260903211919 99 155 1.0 8.0 0.00 0.00 0.00 43 1011.8
20260903211415 98 155 2.0 8.0 0.00 0.00 0.00 44 1011.8
20260903210637 98 157 3.0 9.0 0.00 0.00 0.00 44 1011.9
20260903210130 98 133 4.0 9.0 0.00 0.00 0.00 44 1012.1
20260903205625 98 170 3.0 8.0 0.00 0.00 0.00 44 1012.1
20260903205119 98 126 2.0 5.0 0.00 0.00 0.00 44 1012.1
20260903204844 98 145 2.0 5.0 0.00 0.00 0.00 45 1012.4
20260903204107 98 117 2.0 5.0 0.00 0.00 0.00 43 1012.2
20260903203601 99 117 2.0 6.0 0.00 0.00 0.00 43 1012.5
20260903203055 99 252 3.0 8.0 0.00 0.00 0.00 43 1012.6
20260903202549 98 251 3.0 8.0 0.00 0.00 0.00 44 1012.6
20260903202043 98 147 2.0 7.0 0.00 0.00 0.00 45 1012.5
20260903201537 98 161 2.0 7.0 0.00 0.00 0.00 44 1012.7
20260903201031 98 163 2.0 6.0 0.00 0.00 0.00 46 1012.7
20260903200524 98 113 2.0 7.0 0.00 0.00 0.00 47 1012.7
20260903200019 98 179 2.0 7.0 0.00 0.00 0.00 46 1012.8
20260903195744 98 108 2.0 7.0 0.00 0.00 0.00 47 1012.7
20260903195007 98 101 3.0 9.0 0.00 0.00 0.00 48 1012.9
20260903194501 97 112 3.0 9.0 0.00 0.00 0.00 49 1012.9
20260903193955 97 52 2.0 7.0 0.00 0.00 0.00 49 1013.0
20260903193449 97 152 3.0 7.0 0.00 0.00 0.00 49 1013.1
20260903192943 97 161 3.0 7.0 0.00 0.00 0.00 48 1013.2
20260903192708 96 101 2.0 7.0 0.00 0.00 0.00 51 1013.2
20260903192205 96 159 2.0 9.0 0.00 0.00 0.00 51 1013.3
20260903191435 96 130 2.0 9.0 0.00 0.00 0.00 51 1013.4
20260903190935 96 196 3.0 11.0 0.00 0.00 0.00 53 1013.5
20260903190435 96 138 2.0 11.0 0.00 0.00 0.00 52 1013.6
20260903185933 95 156 2.0 8.0 0.00 0.00 0.00 52 1013.7
20260903185433 95 151 3.0 8.0 0.00 0.00 0.00 53 1013.7
20260903184936 95 111 3.0 7.0 0.00 0.00 0.00 52 1013.9
20260903184431 95 92 2.0 9.0 0.00 0.00 0.00 52 1014.0
20260903183931 95 182 2.0 9.0 0.00 0.00 0.00 53 1014.0
20260903183701 94 213 3.0 10.0 0.00 0.00 0.00 54 1014.0
20260903182927 94 167 3.0 10.0 0.00 0.00 0.00 55 1014.2
20260903182425 94 154 2.0 7.0 0.00 0.00 0.00 55 1014.3
20260903181925 94 188 3.0 9.0 0.00 0.00 0.00 55 1014.4
20260903181425 94 161 3.0 9.0 0.00 0.00 0.00 57 1014.5
20260903180922 94 228 2.0 8.0 0.00 0.00 0.00 57 1014.5
20260903180423 94 173 3.0 10.0 0.00 0.00 0.00 57 1014.5
20260903175923 93 161 3.0 10.0 0.00 0.00 0.00 56 1014.7
20260903175420 93 150 3.0 10.0 0.00 0.00 0.00 58 1014.8
20260903174921 93 124 3.0 8.0 0.00 0.00 0.00 59 1014.8
20260903174421 93 193 3.0 8.0 0.00 0.00 0.00 59 1014.8
20260903174151 93 134 3.0 7.0 0.00 0.00 0.00 58 1014.9
20260903173423 92 150 3.0 7.0 0.00 0.00 0.00 58 1015.0
20260903172921 92 147 2.0 10.0 0.00 0.00 0.00 60 1015.0